Farmington, NM

11:49 PM MST on December 16, 2017 (GMT -0700)
Four Corners Regional

Weather History for KFMN - October, 2013

Change the Weather History Date:

Monday, October 7, 2013

  Actual Average Record
Temperature  
Mean Temperature 56 °F -  
Max Temperature 75 °F 71 °F 83 °F (1979)
Min Temperature 36 °F 40 °F 27 °F (2007)
Degree Days  
Heating Degree Days 10    
Growing Degree Days 6 (Base 50)    
Moisture  
Dew Point 23 °F    
Average Humidity 34    
Maximum Humidity 64    
Minimum Humidity 7    
Precipitation  
Precipitation 0.00 in - - ()
Sea Level Pressure  
Sea Level Pressure 30.17 in    
Wind  
Wind Speed 6 mph (East)    
Max Wind Speed 13 mph    
Max Gust Speed -    
Visibility 10 miles    
Events      
Averages and records for this station are not official NWS values.
T = Trace of Precipitation, MM = Missing Value Source: NWS Daily Summary

Daily Weather History Graph

Daily Weather History Graph

Search for Another Location

Airport or City:

Trip Planner

Search our weather history database for the weather conditions in past years. The results will help you decide how hot, cold, wet, or windy it might be!

Date:

Astronomy

Oct. 07, 2013 Rise Set
Actual Time 7:13 AM MDT 6:47 PM MDT
Civil Twilight 6:47 AM MDT 7:12 PM MDT
Nautical Twilight 6:17 AM MDT 7:42 PM MDT
Astronomical Twilight 5:47 AM MDT 8:12 PM MDT
Moon 10:01 AM MDT (10/7) 8:39 PM MDT (10/7)
Length of Visible Light 12h 25m
Length of Day
11h 33m
Waxing Crescent, 9% of the Moon is Illuminated
Oct 7
Waxing Crescent
Oct 11
First Quarter
Oct 18
Full
Oct 26
Last Quarter
Nov 3
New

Hourly Weather History & Observations

Time (MDT) Temp. Windchill Dew Point Humidity Pressure Visibility Wind Dir Wind Speed Gust Speed Precip Events Conditions
12:53 AM 39.0 °F 34.0 °F 23.0 °F 53% 30.27 in 10.0 mi ENE 6.9 mph - N/A   Clear
1:53 AM 37.9 °F 33.5 °F 21.9 °F 53% 30.27 in 10.0 mi NE 5.8 mph - N/A   Clear
2:53 AM 36.0 °F 32.1 °F 23.0 °F 59% 30.27 in 10.0 mi ENE 4.6 mph - N/A   Clear
3:53 AM 39.0 °F 34.0 °F 23.0 °F 53% 30.25 in 10.0 mi East 6.9 mph - N/A   Clear
4:53 AM 37.9 °F 32.1 °F 23.0 °F 55% 30.24 in 10.0 mi East 8.1 mph - N/A   Clear
5:53 AM 37.0 °F 31.6 °F 25.0 °F 62% 30.25 in 10.0 mi East 6.9 mph - N/A   Clear
6:53 AM 36.0 °F 29.6 °F 25.0 °F 64% 30.27 in 10.0 mi East 8.1 mph - N/A   Clear
7:53 AM 37.9 °F 32.7 °F 25.0 °F 60% 30.29 in 10.0 mi East 6.9 mph - N/A   Clear
8:53 AM 43.0 °F 36.8 °F 24.1 °F 47% 30.30 in 10.0 mi ESE 11.5 mph - N/A   Clear
9:53 AM 48.9 °F - 26.1 °F 41% 30.28 in 10.0 mi East 6.9 mph - N/A   Clear
10:53 AM 57.9 °F - 27.0 °F 31% 30.26 in 10.0 mi ESE 5.8 mph - N/A   Clear
11:53 AM 62.1 °F - 24.1 °F 23% 30.23 in 10.0 mi ESE 4.6 mph - N/A   Clear
12:53 PM 66.9 °F - 21.9 °F 18% 30.19 in 10.0 mi Calm Calm - N/A   Clear
1:53 PM 71.1 °F - 21.9 °F 16% 30.13 in 10.0 mi NE 4.6 mph - N/A   Clear
2:53 PM 72.0 °F - 21.9 °F 15% 30.10 in 10.0 mi Calm Calm - N/A   Clear
3:53 PM 73.9 °F - 21.0 °F 14% 30.06 in 10.0 mi Calm Calm - N/A   Clear
4:53 PM 73.0 °F - 19.0 °F 13% 30.04 in 10.0 mi Calm Calm - N/A   Clear
5:53 PM 73.0 °F - 21.0 °F 14% 30.04 in 10.0 mi Calm Calm - N/A   Clear
6:53 PM 64.9 °F - 21.0 °F 19% 30.05 in 10.0 mi Calm Calm - N/A   Clear
7:53 PM 55.0 °F - 24.1 °F 30% 30.07 in 10.0 mi NNE 5.8 mph - N/A   Clear
8:53 PM 52.0 °F - 24.1 °F 34% 30.08 in 10.0 mi Calm Calm - N/A   Clear
9:53 PM 50.0 °F - 23.0 °F 35% 30.08 in 10.0 mi NE 6.9 mph - N/A   Clear
10:53 PM 52.0 °F - 25.0 °F 35% 30.04 in 10.0 mi East 9.2 mph - N/A   Clear
11:53 PM 51.1 °F - 26.1 °F 38% 30.01 in 10.0 mi East 12.7 mph - N/A   Clear